#timestamp,LO_Frequency,Hit,StdDev 
1510722015.4,286046999.3,N
1510722035.3,286046995.1,N
1510722055.1,286046993.8,N
1510722075.8,286046987.4,N
1510722095.7,286046987.1,N
1510722115.5,286046994.7,N
1510722135.3,286046995.1,N
1510722155.2,286046995.4,N
1510722175.9,286046997.7,N
1510722195.7,286047002.9,N
1510722215.6,286047005.0,N
1510722235.4,286047006.2,N
1510722255.2,286047014.7,N
1510722275.0,286047020.4,N
1510722275.9,286047020.4,N
1510722295.8,286047018.2,N
1510722315.6,286047017.9,N
1510722335.4,286047020.3,N
1510722355.3,286047020.2,N
1510722375.1,286047019.6,N
1510722376.0,286047019.6,N
1510722395.8,286047027.2,N
1510722415.7,286047033.4,N
1510722435.5,286047040.5,Y
1510722455.3,286047027.9,P
1510722475.2,286047024.3,N
1510722495.9,286047025.4,P
1510722515.7,286047023.6,Y
1510722535.6,286047004.4,P
1510722555.4,286047006.0,N
1510722575.2,286047010.3,N
1510722595.1,286047001.9,N
1510722596.0,286047001.9,N
1510722615.8,286047000.4,N
1510722635.6,286046998.2,N
1510722655.4,286047000.6,N
1510722675.3,286046996.4,N
1510722695.1,286046992.7,N
1510722715.8,286046988.6,N
1510722735.7,286046985.3,N
1510722755.5,286046982.5,N
1510722775.3,286046978.0,N
1510722795.2,286046980.5,N
1510722815.9,286046979.3,N
1510722835.7,286046981.9,N
1510722855.6,286046982.9,N
1510722875.4,286046983.7,N
1510722895.2,286046980.9,N
1510722915.0,286046974.5,N
1510722916.0,286046974.5,N
1510722935.8,286046971.0,N
1510722955.6,286046969.8,N
1510722975.4,286046971.6,N
1510722995.3,286046970.5,N
1510723015.1,286046968.1,N
1510723035.8,286046968.0,N
1510723055.7,286046969.6,N
1510723075.5,286046971.7,N
1510723095.3,286046968.5,N
1510723115.2,286046968.7,N
1510723135.9,286046970.7,N
1510723155.7,286046967.2,N
1510723175.6,286046967.7,N
1510723195.4,286046966.9,Y
1510723215.2,286046985.2,P
1510723235.1,286046978.9,P
1510723236.0,286046978.9,P
1510723255.8,286046982.2,Y
1510723275.6,286047007.3,P
1510723295.5,286047013.4,N
1510723315.3,286047006.9,N
1510723335.1,286047005.1,N
1510723355.9,286047008.3,N
1510723375.7,286047013.5,N
1510723395.5,286047013.7,N
1510723415.4,286047014.8,N
1510723435.2,286047013.8,N
1510723455.0,286047008.3,N
1510723455.9,286047008.3,N
1510723475.7,286047008.2,N
1510723495.6,286047007.8,N
1510723515.4,286047009.2,N
1510723535.2,286047013.4,N
1510723555.1,286047015.1,N
1510723556.0,286047015.1,N
1510723575.8,286047012.4,N
1510723595.6,286047008.8,N
1510723615.5,286047005.1,N
1510723635.3,286047001.5,N
1510723655.1,286047003.4,N
1510723675.9,286046996.5,N
1510723695.7,286046998.9,N
1510723715.5,286046998.8,N
1510723735.4,286047002.4,N
1510723755.2,286047006.0,N
1510723775.0,286047000.2,N
1510723775.9,286047000.2,N
1510723795.7,286047004.4,N
1510723815.6,286047000.6,N
1510723835.4,286046998.8,N
1510723855.2,286047001.2,N
1510723875.1,286046999.1,N
1510723876.0,286046999.1,N
1510723895.8,286047004.4,N
1510723915.6,286047000.1,N
1510723935.5,286047000.0,N
1510723955.3,286046995.5,N
1510723975.1,286046991.8,N
1510723995.9,286046990.2,N
1510724015.7,286046988.0,N
1510724035.5,286046984.2,N
1510724055.4,286046978.2,N
1510724075.2,286046973.2,Y
1510724095.0,286046967.5,P
1510724095.9,286046967.5,N
1510724115.8,286046961.0,N
1510724135.6,286046958.4,N
1510724155.4,286046955.3,N
1510724175.3,286046951.0,Y
1510724195.1,286046978.4,P
1510724196.0,286046978.4,P
1510724215.8,286046973.0,P
1510724235.7,286046975.8,Y
1510724255.5,286047003.1,P
1510724275.3,286047004.9,N
1510724295.2,286047001.3,N
1510724315.9,286047000.6,N
1510724335.7,286046999.7,N
1510724355.6,286047002.9,N
1510724375.4,286047001.9,N
1510724395.2,286047005.8,N
1510724415.0,286047010.2,N
1510724415.9,286047010.2,N
1510724435.8,286047006.1,N
1510724455.6,286047001.7,N
1510724475.4,286046996.5,N
1510724495.3,286046999.7,N
1510724515.1,286046999.2,N
1510724535.8,286047002.4,N
1510724555.7,286047002.3,N
1510724575.5,286046998.5,N
1510724595.3,286046996.8,N
1510724615.2,286046997.8,N
1510724635.9,286046995.1,N
1510724655.7,286046995.8,N
1510724675.6,286046998.2,N
1510724695.4,286047005.2,N
1510724715.2,286047006.8,N
1510724735.0,286047009.7,N
1510724735.9,286047009.7,N
1510724755.8,286047019.9,N
1510724775.6,286047016.1,N
1510724795.4,286047013.7,N
1510724815.3,286047010.5,N
1510724835.1,286047010.3,N
1510724855.8,286047011.8,N
1510724875.7,286047013.7,N
1510724895.5,286047015.8,N
1510724915.3,286047018.8,N
1510724935.2,286047012.5,N
1510724955.9,286047020.8,N
1510724975.7,286047025.9,Y
1510724995.6,286047021.3,P
1510725015.4,286047019.9,N
1510725035.2,286047021.4,P
1510725055.1,286047017.5,N
1510725056.0,286047017.5,Y
1510725075.8,286047003.5,P
1510725095.6,286047008.2,N
1510725115.5,286047007.9,N
1510725135.3,286047006.2,N
1510725155.1,286047010.4,N
1510725175.9,286047010.6,N
1510725195.7,286047013.2,Y
1510725215.5,286047003.8,P
1510725235.4,286047006.9,N
1510725255.2,286047004.5,N
1510725275.0,286047006.5,Y
1510725275.9,286047006.5,P
1510725295.8,286047003.7,P
1510725315.6,286047000.2,N
1510725335.4,286046998.1,N
1510725355.3,286046999.2,N
1510725375.1,286047000.4,N
1510725376.0,286047000.4,N
1510725395.8,286047000.5,N
1510725415.6,286047000.0,N
1510725435.5,286046997.0,N
1510725455.3,286046995.7,N
1510725475.1,286047000.9,N
1510725495.9,286046995.0,N
1510725515.7,286046993.4,N
1510725535.5,286046994.8,N
1510725555.4,286046996.8,N
1510725575.2,286046998.5,N
1510725595.0,286046998.4,N
1510725595.9,286046998.4,N
